Date String (YYYY-MM-DD hh:mm:ss) UTC,Instrument flags,Ambient pressure (hPa),Sample flow (lpm),Bypass flow (lpm),Sample temperature (°C),Ambient temperature (°C),ASC tube jacket temperature (°C),LED temperature (°C),Box temperature (°C),Sample RH (%),Span deviation,Mass concentration (μg/m³),Mass concentration (μg/m³),Mass concentration (μg/m³)
DateTimeUTC,F1_M11,P_M11,Q1_M11,Q2_M11,T1_M11,T2_M11,T3_M11,T4_M11,T5_M11,U1_M11,ZSPAN_M11,X0_M11,X2_M11,X1_M11
2021-09-11 21:00:00,,0827.2,5.00,0.00,28.9,25.9,00.0,37.9,30.3,17.9,0001.9,0020.39,0009.45,0008.05
2021-09-11 21:01:00,,0827.1,5.01,0.00,28.8,25.7,00.0,37.8,30.3,16.9,0001.8,0020.06,0009.42,0008.02
2021-09-11 21:02:00,,0827.0,4.99,0.00,28.7,26.2,00.0,37.8,30.4,17.2,0001.2,0019.11,0009.36,0008.02
2021-09-11 21:03:00,,0827.1,4.99,0.00,28.7,26.6,00.0,37.8,30.4,17.1,0001.1,0019.70,0009.32,0008.02
2021-09-11 21:04:00,,0827.1,5.01,0.00,28.8,27.0,00.0,37.8,30.6,17.4,0001.1,0019.01,0009.31,0008.01
2021-09-11 21:05:00,,0827.1,4.98,0.00,28.9,27.3,00.0,37.8,30.7,17.0,0001.5,0019.46,0009.26,0008.02
2021-09-11 21:06:00,,0827.1,5.01,0.00,28.9,27.6,00.0,37.8,30.8,16.9,0001.6,0019.64,0009.21,0008.02
2021-09-11 21:07:00,,0827.1,5.00,0.00,28.9,26.5,00.0,37.8,30.5,17.0,0001.2,0019.57,0009.21,0008.04
2021-09-11 21:08:00,,0827.2,5.01,0.00,28.8,25.6,00.0,37.8,30.2,16.9,0001.4,0018.57,0009.15,0008.04
2021-09-11 21:09:00,,0827.3,5.01,0.00,28.7,26.0,00.0,37.8,30.3,17.5,0001.3,0018.51,0009.19,0008.04
2021-09-11 21:10:00,,0827.5,4.99,0.00,28.7,26.4,00.0,37.8,30.4,17.4,0000.9,0017.44,0009.21,0008.03
2021-09-11 21:11:00,,0827.4,5.01,0.00,28.8,26.9,00.0,37.8,30.5,17.5,0000.9,0017.11,0009.20,0008.02
2021-09-11 21:12:00,,0827.1,5.00,0.00,28.8,27.2,00.0,37.8,30.7,17.2,0001.4,0016.99,0009.21,0008.01
2021-09-11 21:13:00,,0827.1,4.99,0.00,28.9,27.6,00.0,37.8,30.8,17.0,0001.4,0016.92,0009.19,0008.00
2021-09-11 21:14:00,,0827.0,5.01,0.00,29.0,27.9,00.0,37.8,30.9,16.6,0001.2,0016.12,0009.22,0008.00
2021-09-11 21:15:00,,0827.1,5.00,0.00,29.0,27.6,00.0,37.9,30.8,16.5,0001.2,0015.82,0009.17,0007.99
2021-09-11 21:16:00,,0826.9,5.00,0.00,28.9,26.1,00.0,37.8,30.4,17.1,0001.2,0016.11,0009.16,0007.98
2021-09-11 21:17:00,,0827.1,4.99,0.00,28.8,25.8,00.0,37.8,30.3,17.8,0001.4,0015.62,0009.19,0008.00
2021-09-11 21:18:00,,0827.1,5.00,0.00,28.8,26.3,00.0,37.8,30.4,17.9,0001.6,0014.71,0009.13,0007.99
2021-09-11 21:19:00,,0827.1,5.01,0.00,28.8,26.7,00.0,37.8,30.5,17.9,0001.6,0014.67,0009.13,0007.99
2021-09-11 21:20:00,,0827.0,4.99,0.00,28.8,27.1,00.0,37.8,30.6,18.2,0001.8,0014.55,0009.11,0008.00
2021-09-11 21:21:00,,0826.9,4.99,0.00,28.9,27.5,00.0,37.9,30.8,18.1,0002.3,0014.57,0009.10,0008.01
2021-09-11 21:22:00,,0826.9,5.00,0.00,29.0,27.7,00.0,37.9,30.8,17.8,0002.4,0015.01,0009.09,0008.01
2021-09-11 21:23:00,,0827.1,5.00,0.00,28.9,26.5,00.0,37.9,30.5,17.0,0002.1,0015.66,0009.12,0008.02
2021-09-11 21:24:00,,0827.0,5.00,0.00,28.8,25.5,00.0,37.8,30.2,17.7,0002.0,0016.64,0009.18,0008.02
2021-09-11 21:25:00,,0827.2,5.01,0.00,28.7,25.9,00.0,37.8,30.3,17.5,0002.0,0017.29,0009.20,0008.04
2021-09-11 21:26:00,,0827.1,5.00,0.00,28.7,26.4,00.0,37.8,30.4,17.6,0002.0,0018.14,0009.22,0008.06
2021-09-11 21:27:00,,0827.3,5.00,0.00,28.8,26.8,00.0,37.8,30.5,17.6,0001.5,0018.29,0009.24,0008.10
2021-09-11 21:28:00,,0827.0,5.00,0.00,28.8,27.2,00.0,37.8,30.6,18.1,0001.1,0018.33,0009.24,0008.11
2021-09-11 21:29:00,,0827.1,5.00,0.00,28.9,27.6,00.0,37.8,30.8,18.2,0001.2,0018.59,0009.26,0008.13
2021-09-11 21:30:00,,0827.1,5.02,0.00,28.9,27.2,00.0,37.9,30.7,17.7,0001.3,0018.86,0009.35,0008.17
2021-09-11 21:31:00,,0827.1,4.99,0.00,28.8,25.7,00.0,37.8,30.2,18.0,0001.2,0020.32,0009.36,0008.19
2021-09-11 21:32:00,,0827.1,5.00,0.00,28.7,25.6,00.0,37.8,30.1,18.8,0001.0,0020.79,0009.40,0008.21
2021-09-11 21:33:00,,0827.4,5.00,0.00,28.7,26.1,00.0,37.8,30.3,18.7,0001.0,0021.50,0009.48,0008.25
2021-09-11 21:34:00,,0827.2,5.01,0.00,28.7,26.5,00.0,37.8,30.4,19.3,0000.8,0022.85,0009.66,0008.29
2021-09-11 21:35:00,,0827.1,4.99,0.00,28.7,26.9,00.0,37.8,30.5,19.6,0000.9,0023.74,0009.80,0008.33
2021-09-11 21:36:00,,0827.2,5.01,0.00,28.8,27.3,00.0,37.8,30.7,19.0,0001.1,0025.49,0009.98,0008.36
2021-09-11 21:37:00,,0827.2,5.00,0.00,28.9,27.6,00.0,37.8,30.8,18.0,0001.4,0025.39,0010.06,0008.36
2021-09-11 21:38:00,,0827.2,4.99,0.00,28.9,28.0,00.0,37.8,30.9,18.4,0001.6,0024.92,0010.15,0008.36
2021-09-11 21:39:00,,0827.2,4.99,0.00,29.0,27.6,00.0,37.9,30.8,18.4,0001.5,0026.17,0010.23,0008.37
2021-09-11 21:40:00,,0827.2,5.01,0.00,28.9,26.0,00.0,37.8,30.3,18.8,0001.3,0027.45,0010.37,0008.42
2021-09-11 21:41:00,,0827.2,5.00,0.00,28.8,25.7,00.0,37.8,30.2,19.1,0001.1,0028.65,0010.46,0008.43
2021-09-11 21:42:00,,0827.2,5.01,0.00,28.7,26.2,00.0,37.8,30.4,18.9,0000.8,0029.76,0010.54,0008.44
2021-09-11 21:43:00,,0827.2,5.00,0.00,28.8,26.6,00.0,37.8,30.5,19.3,0000.5,0029.71,0010.59,0008.46
2021-09-11 21:44:00,,0827.2,4.98,0.00,28.8,27.1,00.0,37.8,30.6,19.1,0000.4,0029.47,0010.64,0008.47
2021-09-11 21:45:00,,0827.2,5.01,0.00,28.9,27.5,00.0,37.8,30.7,19.2,0000.5,0027.92,0010.56,0008.47
2021-09-11 21:46:00,,0827.2,5.00,0.00,28.9,27.8,00.0,37.8,30.8,19.8,0000.7,0028.29,0010.51,0008.47
2021-09-11 21:47:00,,0827.2,5.00,0.00,29.0,27.5,00.0,37.9,30.8,19.6,0000.8,0027.80,0010.43,0008.47
2021-09-11 21:48:00,,0827.2,4.99,0.00,28.9,25.9,00.0,37.9,30.4,19.5,0000.7,0027.72,0010.42,0008.46
2021-09-11 21:49:00,,0827.2,5.00,0.00,28.8,25.7,00.0,37.8,30.2,19.6,0000.5,0029.87,0010.43,0008.43
2021-09-11 21:50:00,,0827.1,5.00,0.00,28.8,26.2,00.0,37.8,30.4,19.1,0000.7,0032.00,0010.46,0008.39
2021-09-11 21:51:00,,0827.2,5.00,0.00,28.8,26.6,00.0,37.8,30.5,19.2,0000.6,0032.24,0010.42,0008.31
2021-09-11 21:52:00,,0827.1,4.99,0.00,28.8,27.1,00.0,37.8,30.6,19.4,0000.8,0033.41,0010.33,0008.24
2021-09-11 21:53:00,,0827.1,5.01,0.00,28.9,27.5,00.0,37.8,30.7,19.7,0001.0,0033.11,0010.31,0008.18
2021-09-11 21:54:00,,0827.2,5.00,0.00,28.9,27.8,00.0,37.8,30.8,20.2,0001.1,0034.52,0010.43,0008.12
2021-09-11 21:55:00,,0827.2,5.02,0.00,29.0,28.1,00.0,37.9,30.9,20.5,0001.2,0035.09,0010.40,0008.06
2021-09-11 21:56:00,,0827.2,4.99,0.00,29.1,28.2,00.0,37.9,31.0,20.6,0001.1,0036.25,0010.45,0008.01
2021-09-11 21:57:00,,0827.2,5.01,0.00,29.1,27.0,00.0,37.9,30.7,20.8,0001.1,0036.09,0010.47,0007.95
2021-09-11 21:58:00,,0827.2,4.98,0.00,28.9,25.6,00.0,37.9,30.3,21.0,0001.2,0036.02,0010.40,0007.89
2021-09-11 21:59:00,,0827.2,5.00,0.00,28.8,25.8,00.0,37.9,30.3,20.8,0001.4,0036.30,0010.38,0007.85
